CWLEESTJE Weather Reports


time (UTC)temp
C
wind
direction
speed
KPH
gust
KPH
rain 1hr
cm
rain 24hr
cm
rain mn
cm
humidity
%
barometer
mb
20260507171529 12 18 9.7 12.9 0.00 0.00 0.00 78
20260507170558 12 16 11.3 12.9 0.00 0.00 0.00 78
20260507165522 12 5 9.7 14.5 0.00 0.00 0.00 78
20260507164527 12 14 11.3 14.5 0.00 0.00 0.00 78
20260507163540 12 16 9.7 12.9 0.00 0.00 0.00 78
20260507162523 12 9 9.7 12.9 0.00 0.00 0.00 78
20260507161536 12 20 9.7 12.9 0.00 0.00 0.00 77
20260507160549 12 12 8.0 12.9 0.00 0.00 0.00 77
20260507155543 12 16 8.0 11.3 0.00 0.00 0.00 77
20260507154534 12 15 9.7 14.5 0.00 0.00 0.00 77
20260507153609 13 11 9.7 12.9 0.00 0.00 0.00 76
20260507152530 13 5 9.7 14.5 0.00 0.00 0.00 76
20260507151534 13 14 9.7 16.1 0.00 0.00 0.00 76
20260507150526 13 19 8.0 14.5 0.00 0.00 0.00 76
20260507145558 13 9 11.3 16.1 0.00 0.00 0.00 75
20260507144538 13 17 8.0 12.9 0.00 0.00 0.00 75
20260507143550 13 11 8.0 12.9 0.00 0.00 0.00 75
20260507142544 13 32 11.3 16.1 0.00 0.00 0.00 75
20260507141527 13 15 8.0 16.1 0.00 0.00 0.00 74
20260507140601 13 19 8.0 14.5 0.00 0.00 0.00 74
20260507135523 13 360 4.8 6.4 0.00 0.00 0.00 73
20260507134552 13 360 6.4 12.9 0.00 0.00 0.00 72
20260507133544 13 341 8.0 12.9 0.00 0.00 0.00 71
20260507132528 13 12 1.6 8.0 0.00 0.00 0.00 69
20260507131542 14 12 3.2 9.7 0.00 0.00 0.00 69
20260507130526 14 12 6.4 11.3 0.00 0.00 0.00 69
20260507125559 14 13 8.0 12.9 0.00 0.00 0.00 68
20260507124521 14 360 4.8 8.0 0.00 0.00 0.00 68
20260507123550 14 30 3.2 8.0 0.00 0.00 0.00 67
20260507122542 15 29 6.4 9.7 0.00 0.00 0.00 66
20260507121526 15 20 1.6 8.0 0.00 0.00 0.00 66
20260507120541 15 18 1.6 9.7 0.00 0.00 0.00 64
20260507115545 15 325 1.6 11.3 0.00 0.00 0.00 66
20260507114538 15 355 4.8 11.3 0.00 0.00 0.00 65
20260507113521 15 304 1.6 8.0 0.00 0.00 0.00 68
20260507112550 15 304 8.0 11.3 0.00 0.00 0.00 70
20260507111532 14 327 6.4 9.7 0.00 0.00 0.00 70
20260507110524 14 42 1.6 8.0 0.00 0.00 0.00 70
20260507105528 14 355 4.8 9.7 0.00 0.00 0.00 69
20260507104521 14 16 4.8 8.0 0.00 0.00 0.00 70
20260507103524 14 14 8.0 12.9 0.00 0.00 0.00 70
20260507102537 14 49 1.6 6.4 0.00 0.00 0.00 69
20260507101521 14 47 8.0 9.7 0.00 0.00 0.00 71
20260507100530 13 290 3.2 8.0 0.00 0.00 0.00 70
20260507095533 13 248 0.0 6.4 0.00 0.00 0.00 70
20260507094546 13 242 3.2 11.3 0.00 0.00 0.00 69
20260507093531 13 194 4.8 11.3 0.00 0.00 0.00 72
20260507092543 13 157 4.8 8.0 0.00 0.00 0.00 70
20260507091526 14 97 9.7 11.3 0.00 0.00 0.00 73
20260507090539 13 149 3.2 16.1 0.00 0.00 0.00 76
20260507085539 13 140 6.4 12.9 0.00 0.00 0.00 79
20260507084552 13 116 8.0 11.3 0.00 0.00 0.00 82
20260507083545 12 98 3.2 11.3 0.00 0.00 0.00 85
20260507082529 12 122 4.8 11.3 0.00 0.00 0.00 88
20260507081532 11 100 4.8 9.7 0.00 0.00 0.00 89
20260507080525 10 96 8.0 9.7 0.00 0.00 0.00 90
20260507075529 10 78 6.4 11.3 0.00 0.00 0.00 91
20260507074539 10 75 6.4 11.3 0.00 0.00 0.00 91
20260507073522 10 74 6.4 11.3 0.00 0.00 0.00 92
20260507072535 9 79 9.7 11.3 0.00 0.00 0.00 92
20260507071539 9 82 8.0 11.3 0.00 0.00 0.00 92
20260507070522 9 83 8.0 11.3 0.00 0.00 0.00 92
20260507065534 9 80 6.4 11.3 0.00 0.00 0.00 93
20260507064547 8 63 6.4 8.0 0.00 0.00 0.00 93
20260507063532 8 61 4.8 9.7 0.00 0.00 0.00 93
20260507062601 8 51 4.8 8.0 0.00 0.00 0.00 93
20260507061523 8 50 1.6 6.4 0.00 0.00 0.00 93
20260507060536 8 50 1.6 4.8 0.00 0.00 0.00 93
20260507055540 8 50 4.8 8.0 0.00 0.00 0.00 93
20260507054553 8 50 3.2 6.4 0.00 0.00 0.00 93
20260507053536 7 50 1.6 3.2 0.00 0.00 0.00 93
20260507052529 7 50 3.2 6.4 0.00 0.00 0.00 93
20260507051528 7 50 1.6 3.2 0.00 0.00 0.00 93
20260507050541 7 50 0.0 0.0 0.00 0.00 0.00 93
20260507045525 7 50 0.0 0.0 0.00 0.00 0.00 93
20260507044538 7 50 0.0 0.0 0.00 0.00 0.00 93
20260507043521 7 50 0.0 3.2 0.00 0.00 0.00 93
20260507042527 7 50 1.6 6.4 0.00 0.00 0.00 92
20260507041539 7 49 6.4 8.0 0.00 0.00 0.00 92
20260507040522 7 48 4.8 11.3 0.00 0.00 0.00 92
20260507035532 7 13 3.2 8.0 0.00 0.00 0.00 93
20260507034535 7 313 0.0 0.0 0.00 0.00 0.00 93
20260507033528 7 312 0.0 0.0 0.00 0.00 0.00 92
20260507032532 7 312 0.0 0.0 0.00 0.00 0.00 93
20260507031525 7 313 0.0 0.0 0.00 0.00 0.00 92
20260507030530 7 312 0.0 0.0 0.00 0.00 0.00 92
20260507025543 6 312 0.0 1.6 0.00 0.00 0.00 92
20260507024526 6 312 0.0 1.6 0.00 0.00 0.00 92
20260507023556 6 312 0.0 0.0 0.00 0.00 0.00 92
20260507022549 6 312 0.0 1.6 0.00 0.00 0.00 92
20260507021532 6 312 1.6 3.2 0.00 0.00 0.00 92
20260507020537 6 312 3.2 3.2 0.00 0.00 0.00 91
20260507015548 6 312 3.2 6.4 0.00 0.00 0.00 91
20260507014540 6 312 3.2 8.0 0.00 0.00 0.00 91
20260507013523 6 312 3.2 8.0 0.00 0.00 0.00 91
20260507012523 6 339 1.6 8.0 0.00 0.00 0.00 91
20260507011536 6 342 0.0 3.2 0.00 0.00 0.00 91
20260507010549 6 342 3.2 3.2 0.00 0.00 0.00 91
20260507005532 6 342 1.6 3.2 0.00 0.00 0.00 91
20260507004536 6 342 3.2 3.2 0.00 0.00 0.00 91
20260507003528 6 342 3.2 3.2 0.00 0.00 0.00 90
20260507002532 6 342 3.2 3.2 0.00 0.00 0.00 90
20260507001545 6 342 0.0 0.0 0.00 0.00 0.00 90
20260507000525 6 342 1.6 3.2 0.00 0.00 0.00 90
20260506235532 6 342 3.2 3.2 0.00 0.00 0.00 90
20260506234536 7 342 1.6 3.2 0.00 0.00 0.00 90
20260506233531 7 342 1.6 3.2 0.00 0.00 0.00 90
20260506232534 7 342 0.0 3.2 0.00 0.00 0.00 90
20260506231547 7 342 0.0 6.4 0.00 0.00 0.00 90
20260506230531 8 342 3.2 4.8 0.00 0.00 0.00 90
20260506225544 8 342 3.2 6.4 0.00 0.00 0.00 89
20260506224544 8 342 0.0 3.2 0.00 0.00 0.00 89
20260506223535 8 342 3.2 4.8 0.00 0.00 0.00 89
20260506222610 9 342 1.6 8.0 0.00 0.00 0.00 89
20260506221532 9 342 1.6 6.4 0.00 0.00 0.00 89
20260506220535 9 343 3.2 8.0 0.00 0.00 0.00 89
20260506215528 9 344 3.2 9.7 0.00 0.00 0.00 89
20260506214533 9 344 4.8 8.0 0.00 0.00 0.00 89
20260506213542 9 345 0.0 8.0 0.00 0.00 0.00 89
20260506212527 9 327 4.8 9.7 0.00 0.00 0.00 89
20260506211540 9 321 8.0 9.7 0.00 0.00 0.00 88
20260506210543 10 323 0.0 9.7 0.00 0.00 0.00 88
20260506205535 10 323 4.8 9.7 0.00 0.00 0.00 87
20260506204548 10 325 4.8 11.3 0.00 0.00 0.00 87
20260506203532 10 333 4.8 11.3 0.00 0.00 0.00 87
20260506202532 10 342 8.0 11.3 0.00 0.00 0.00 87
20260506201526 10 346 6.4 9.7 0.00 0.00 0.00 86
20260506200559 10 327 8.0 12.9 0.00 0.00 0.00 86
20260506195521 10 317 4.8 11.3 0.00 0.00 0.00 85
20260506194525 11 340 4.8 12.9 0.00 0.00 0.00 85
20260506193600 11 327 6.4 11.3 0.00 0.00 0.00 84
20260506192531 11 332 8.0 12.9 0.00 0.00 0.00 84
20260506191531 11 342 4.8 14.5 0.00 0.00 0.00 83
20260506190545 11 5 8.0 16.1 0.00 0.00 0.00 82
20260506185530 12 13 8.0 20.9 0.00 0.00 0.00 81
20260506184544 12 334 16.1 20.9 0.00 0.00 0.00 80
20260506183527 12 40 16.1 24.1 0.00 0.00 0.00 79
20260506182541 12 9 8.0 20.9 0.00 0.00 0.00 79
20260506181523 12 5 9.7 22.5 0.00 0.00 0.00 78
20260506180526 12 355 16.1 24.1 0.00 0.00 0.00 78
20260506175535 12 360 14.5 24.1 0.00 0.00 0.00 79
20260506174550 12 9 12.9 22.5 0.00 0.00 0.00 79
20260506173533 12 10 11.3 24.1 0.00 0.00 0.00 78
20260506172537 12 339 14.5 22.5 0.00 0.00 0.00 78